TITAN 3C TRANSTAGE DEB, 26525

Orbit data source: Space-Track

TITAN 3C TRANSTAGE DEB, 26525 is space debris in HEO originally from a launch on Tue, 21 Dec 1965 UTC launched from the Air Force Eastern Test Range (AFETR). Debris objects in space refer to the collection of defunct objects orbiting the Earth. Examples of debris include non-operational satellites, rocket bodies, and fragments generated from explosions, collisions, or faulty payload assembly.

Loading next visibility...
Identifier
26525, 1965-108AL
Orbit
HEO
Country
Flag of USUS
Related business
Manufacturer
Unknown
Mission
Spacecraft
Bus & Motor
Unknown
Mass
Unknown
Launch date (UTC)
1965-12-21 (60 years ago)
Launch vehicle
Unknown
Launch site
Air Force Eastern Test Range (AFETR)
Object type
Payload
Rocket body
Debris
Shape & HBR
Unknown
Radar Cross Section
Medium (>0.1 m² and <1 m²)

Expand to show TLE details & history
Last TLE update: 22 hours ago

TLE from 22 hours ago
0 TITAN 3C TRANSTAGE DEB
1 26525U 65108AL  25242.08284050  .00000193  00000-0  20106-2 0  9996
2 26525  26.4911 292.5622 6714361 167.6033 214.7304  2.83249752262460
Epoch: 2025-08-30T01:59Z
TLE epoch observation values (Epoch: 2025-08-30T01:59:17.419Z)
Latitude
-1.35133°
Longitude
-78.47618°
Altitude
27,953.44 km
Speed
2.081 km/s
True Right ascension
19h 19m 28s
True Declination
-1° 20' 59"
Sunlit
Object was in daylight at epoch
Visualization orbit readout
Latitude
Unknown
Longitude
Unknown
Altitude
Unknown
Speed
Unknown
Apparent Right ascension
Unknown
Apparent Declination
Unknown
Sunlit
N/A
Visualization observer readout
Local Sidereal Time
16:05:09
Azimuth
Unknown
Elevation
Unknown
Doppler factor
Unknown
Orbital elements
Apogee altitude
28,895.718 km
Perigee altitude
555.849 km
Semi-major axis
21,103.92 km
Eccentricity
0.67144
Inclination
26.4911°
RAAN
292.5622°
Arg. of periapsis
167.6033°
True anomaly
189.37956°
Mean anomaly
214.7304°
Eccentric anomaly
200.96547°
Mean motion
0.70794 °/min
Orbital period
508.52 mins
BSTAR
0.0020106
Loading maneuver chart data...
Computing Atmospheric mass density...

Documentation

Showing up to 5 results
|